Flag for Germany Weather past 2 weeks in Eberswalde, Brandenburg, Germany

Now
63 °F

Sprinkles. Broken clouds.


Feels Like: 63 °F
Forecast: 55 / 65 °F
Wind: 18 mph from West

Location: Berlin-Tegel

Current Time: Jul 28, 2015 at 1:05:05 PM

Latest Report: Jul 28, 2015 at 12:20 PM


Visibility: N/A

Pressure: 29.62 "Hg

Humidity: 68%

Dew point: 52 °F

Location of EberswaldeLocation

Historic Weather in Eberswalde — Graph

°F

Eberswalde temperature yesterday

Maximum temperature yesterday: 72 °F (at 2:20 PM)
Minimum temperature yesterday: 55 °F (at 12:50 AM)
Average temperature yesterday: 63 °F

Past Weeks' High & Low Weather Summary

 TemperatureHumidityPressure
High90 °F (Jul 17, 5:50 PM)100% (Jul 14, 1:20 AM)30.09 "Hg (Jul 14, 1:20 AM)
Low55 °F (Jul 26, 1:50 AM)28% (Jul 25, 4:20 PM)29.53 "Hg (Jul 25, 8:50 AM)
Average68 °F67%29.88 "Hg
* Reported Jul 13 11:20 AM — Jul 28 11:20 AM, Eberswalde, Weather by CustomWeather, © 2015

Note: Actual official high and low records may vary slightly from our data, if they occured in-between our weather recording intervals... More about our weather records

Advertising

Eberswalde weather history for previous 24 hours

 ConditionsComfort  
Time TempWeatherWind HumidityBarometerVisibility
11:20 AM
Tue, Jul 28
64 °FBroken clouds.20 mph64%29.62 "HgN/A
10:50 AM64 °FBroken clouds.21 mph68%29.62 "HgN/A
10:20 AM64 °FScattered clouds.17 mph68%29.59 "HgN/A
9:50 AM64 °FScattered clouds.17 mph68%29.59 "HgN/A
9:20 AM64 °FScattered clouds.18 mph68%29.59 "HgN/A
8:50 AM64 °FScattered clouds.18 mph68%29.59 "HgN/A
8:20 AM63 °FScattered clouds.15 mph77%29.59 "HgN/A
7:50 AM61 °FScattered clouds.15 mph83%29.59 "HgN/A
7:20 AM61 °FSunny.14 mph88%29.59 "Hg10 mi
6:50 AM61 °FSunny.10 mph88%29.59 "Hg10 mi
6:20 AM61 °FScattered clouds.12 mph83%29.59 "HgN/A
5:50 AM59 °FClear.10 mph88%29.59 "Hg10 mi
5:20 AM61 °FPassing clouds.12 mph83%29.59 "HgN/A
4:50 AM61 °FClear.13 mph88%29.56 "Hg10 mi
4:20 AM59 °FClear.12 mph94%29.56 "Hg10 mi
3:50 AM59 °FClear.10 mph94%29.59 "Hg10 mi
3:20 AM59 °FClear.9 mph94%29.59 "Hg10 mi
2:50 AM59 °FPassing clouds.10 mph94%29.59 "HgN/A
2:20 AM61 °FPassing clouds.9 mph88%29.59 "HgN/A
1:50 AM59 °FPassing clouds.7 mph94%29.59 "HgN/A
1:20 AM59 °FPassing clouds.9 mph94%29.59 "HgN/A
12:50 AM61 °FPartly cloudy.9 mph88%29.59 "HgN/A
11:20 PM
Mon, Jul 27
61 °FClear.9 mph94%29.59 "Hg10 mi
10:50 PM61 °FClear.10 mph94%29.59 "Hg10 mi
10:20 PM61 °FClear.9 mph94%29.59 "Hg10 mi
9:50 PM61 °FScattered clouds.12 mph94%29.59 "HgN/A
9:20 PM63 °FSprinkles. Broken clouds.13 mph88%29.59 "HgN/A
8:50 PM61 °FSprinkles. Passing clouds.12 mph94%29.59 "HgN/A
8:20 PM61 °FSprinkles. Broken clouds.12 mph94%29.59 "HgN/A
7:50 PM64 °FPartly sunny.12 mph78%29.59 "HgN/A
7:20 PM63 °FPartly sunny.12 mph83%29.56 "HgN/A
6:50 PM63 °FPartly sunny.10 mph88%29.56 "HgN/A
6:20 PM61 °FSprinkles. Broken clouds.17 mph88%29.56 "HgN/A
5:50 PM70 °FScattered showers. Broken clouds.15 mph60%29.53 "HgN/A
5:20 PM72 °FPartly sunny.14 mph53%29.53 "HgN/A
4:50 PM72 °FBroken clouds.12 mph57%29.53 "HgN/A
4:20 PM72 °FSprinkles. Broken clouds.13 mph57%29.53 "HgN/A
3:50 PM70 °FBroken clouds.10 mph60%29.53 "HgN/A
3:20 PM72 °FBroken clouds.15 mph53%29.53 "HgN/A
2:50 PM70 °FScattered clouds.12 mph57%29.53 "HgN/A
2:20 PM72 °FBroken clouds.12 mph57%29.56 "HgN/A
1:50 PM68 °FBroken clouds.7 mph64%29.56 "HgN/A
1:20 PM66 °FPartly sunny.6 mph64%29.56 "HgN/A
Weather by CustomWeather, © 2015

See weather overviewHow to use our weather pages